Weather in Vezhayka

Russia / Komi Republic     62°33′22″N   49°44′18″E
temp.,
°C
wind,
m/s
gust,
m/s
humid.,
%
clouds,
%
prec.,
mm/h
press.,
hPa
HPBL,
m
16 april, fri
fri1600:00−2nw15845 0.0 103096
03:00−2wnw13885 0.0 103164
06:000w237623 0.0 1032118
09:00+4w35515 0.0 1032941
12:00+6w465085 0.0 10311602
15:00+7wnw4755100 0.0 10301730
18:00+5wnw386995 0.1 1029344
21:00+1w29895 0.1 1030202
17 april, sat
sat1700:000wnw310936 0.0 1030255
03:000wnw3119313 0.0 1030345
06:00+1wnw31183100 0.0 1030585
09:00+5wnw4116998 0.0 1029855
12:00+8wnw6115699 0.0 10271576
15:00+8wnw5126288 0.1 10261685
18:00+7nw5116691 0.3 10251337
21:00+5nw4117796 0.4 1026781
18 april, sun
sun1800:00+2n4897100 0.4 1027752
03:00−2ne38785 0.6 1031610
06:00−2ne47746 0.0 1033727
09:00+1ene35455 0.0 10351153
12:00+3ene34290 0.0 10361600
15:00+3ene33270 0.0 10361668
18:00+2ene24395 0.0 1037142
21:00−2e22535 0.0 103827
19 april, mon
mon1900:00−2se22555 0.0 103930
03:00−3sse11575 0.0 104015
06:00−1s125116 0.0 1040155
09:00+3ssw22375 0.0 10401000
12:00+5sw223287 0.0 10381326
15:00+6sw23315 0.0 10371332
18:00+5sw11445 0.0 103614
21:00+1sw22545 0.0 103712
20 april, tue
tue2000:00−1sw22605 0.0 103730
03:00−1wsw22635 0.0 103637
06:00+1wsw23565 0.0 1036132
09:00+6sw23375 0.0 1035737
12:00+9sw22315 0.0 10341173
15:00+10ssw23295 0.0 10331302
18:00+8s12430 0.0 103120
21:00+3sse225762 0.0 103213